NEWFOUND LAKE DAM: From 11/25/2019 11:00 to 12/09/2019 16:00

Date STAGE [FT] FLOW [CFS] LAKE ELEVATION [FT] PRECIPITATION INCREMENT [IN] AIR TEMPERATURE [DEGF]
12/09/2019 10:00 5.11 -- 585.47 0.00 32.8
12/09/2019 09:00 5.10 -- 585.45 0.00 32.2
12/09/2019 08:00 5.10 133.0 585.47 0.00 30.4
12/09/2019 07:00 5.11 134.9 585.47 0.00 29.6
12/09/2019 06:00 5.10 133.0 585.45 0.00 29.5
12/09/2019 05:00 5.10 133.0 585.46 0.00 29.9
12/09/2019 04:00 5.11 134.9 585.45 0.00 30.6
12/09/2019 03:00 5.10 133.0 585.46 0.00 30.8
12/09/2019 02:00 5.10 133.0 585.47 0.00 30.8
12/09/2019 01:00 5.10 133.0 585.47 0.00 29.5
12/09/2019 00:00 5.10 133.0 585.42 0.00 28.2
12/08/2019 23:00 5.11 134.9 585.46 0.00 26.7
12/08/2019 22:00 5.11 134.9 585.45 0.00 26.5
12/08/2019 21:00 5.11 134.9 585.49 0.00 26.9
12/08/2019 20:00 5.11 134.9 585.47 0.00 26.4
12/08/2019 19:00 5.10 133.0 585.47 0.00 26.1
12/08/2019 18:00 5.10 133.0 585.45 0.00 26.4
12/08/2019 17:00 5.11 134.9 585.48 0.00 26.7
12/08/2019 16:00 5.10 133.0 585.46 0.00 27.4
12/08/2019 15:00 5.11 134.9 585.47 0.00 28.7
12/08/2019 14:00 5.12 136.9 585.48 0.00 28.2
12/08/2019 13:00 5.11 134.9 585.47 0.00 27.9
12/08/2019 12:00 5.11 134.9 585.49 0.00 24.0
12/08/2019 11:00 5.12 136.9 585.49 0.00 19.0
12/08/2019 10:00 5.12 136.9 585.48 0.00 14.4
12/08/2019 09:00 5.12 136.9 585.49 0.00 8.8
12/08/2019 08:00 5.12 136.9 585.48 0.00 5.5
12/08/2019 07:00 5.12 136.9 585.48 0.00 5.3
12/08/2019 06:00 5.12 136.9 585.49 0.00 6.3
12/08/2019 05:00 5.11 134.9 585.48 0.00 6.3
12/08/2019 04:00 5.12 136.9 585.49 0.00 7.2
12/08/2019 03:00 5.12 136.9 585.49 0.00 7.9
12/08/2019 02:00 5.12 136.9 585.48 0.00 8.6
12/08/2019 01:00 5.13 138.9 585.50 0.00 8.5
12/08/2019 00:00 5.13 138.9 585.51 0.00 9.6
12/07/2019 23:00 5.13 138.9 585.50 0.00 10.6
12/07/2019 22:00 5.12 136.9 585.50 0.00 11.2
12/07/2019 21:00 5.13 138.9 585.51 0.00 12.4
12/07/2019 20:00 5.12 136.9 585.51 0.00 14.5
12/07/2019 19:00 5.13 138.9 585.51 0.00 16.8
12/07/2019 18:00 5.13 138.9 585.52 0.00 18.4
12/07/2019 17:00 5.13 138.9 585.52 0.00 22.8
12/07/2019 16:00 5.13 138.9 585.52 0.00 24.1
12/07/2019 15:00 5.13 138.9 585.53 0.00 25.7
12/07/2019 14:00 5.14 140.9 585.53 0.00 25.3
12/07/2019 13:00 5.13 138.9 585.54 0.00 25.8
12/07/2019 12:00 5.14 140.9 585.55 0.00 25.4
12/07/2019 11:00 5.13 138.9 585.55 0.00 24.1
12/07/2019 10:00 5.13 138.9 585.53 0.00 22.6
12/07/2019 09:00 5.14 140.9 585.53 0.00 20.8
12/07/2019 08:00 5.14 140.9 585.53 0.00 17.6
12/07/2019 07:00 5.14 140.9 585.54 0.00 15.9
12/07/2019 06:00 5.14 140.9 585.53 0.00 15.4
12/07/2019 05:00 5.14 140.9 585.54 0.00 18.5
12/07/2019 04:00 5.15 142.8 585.53 0.00 20.5
12/07/2019 03:00 5.15 142.8 585.55 0.00 21.3
12/07/2019 02:00 5.14 140.9 585.53 0.00 22.3
12/07/2019 01:00 5.15 142.8 585.55 0.00 23.4
12/07/2019 00:00 5.15 142.8 585.55 0.00 25.1
12/06/2019 23:00 5.15 142.8 585.56 0.00 27.0
12/06/2019 22:00 5.14 140.9 585.55 0.00 26.6
12/06/2019 21:00 5.15 142.8 585.55 0.00 26.8
12/06/2019 20:00 5.15 142.8 585.56 0.00 27.3
12/06/2019 19:00 5.14 140.9 585.54 0.00 27.2
12/06/2019 18:00 5.14 140.9 585.55 0.00 27.1
12/06/2019 17:00 5.15 142.8 585.56 0.00 27.3
12/06/2019 16:00 5.14 140.9 585.55 0.00 27.6
12/06/2019 15:00 5.14 140.9 585.55 0.00 27.6
12/06/2019 14:00 5.14 140.9 585.54 0.00 28.8
12/06/2019 13:00 5.14 140.9 585.55 0.00 30.3
12/06/2019 12:00 5.14 140.9 585.56 0.00 29.9
12/06/2019 11:00 5.14 140.9 585.54 0.00 29.4
12/06/2019 10:00 5.15 142.8 585.56 0.00 27.5
12/06/2019 09:00 5.15 142.8 585.55 0.00 25.6
12/06/2019 08:00 5.15 142.8 585.55 0.00 22.9
12/06/2019 07:00 5.15 142.8 585.57 0.00 22.3
12/06/2019 06:00 5.15 142.8 585.56 0.00 24.4
12/06/2019 05:00 5.16 144.9 585.56 0.00 25.0
12/06/2019 04:00 5.16 144.9 585.56 0.00 25.0
12/06/2019 03:00 5.17 146.9 585.57 0.00 25.3
12/06/2019 02:00 5.15 142.8 585.56 0.00 25.2
12/06/2019 01:00 5.15 142.8 585.57 0.00 25.9
12/06/2019 00:00 5.16 144.9 585.57 0.00 25.9
12/05/2019 23:00 5.16 144.9 585.59 0.00 26.5
12/05/2019 22:00 5.15 142.8 585.58 0.00 27.5
12/05/2019 21:00 5.16 144.9 585.60 0.00 28.8
12/05/2019 20:00 5.16 144.9 585.59 0.00 30.6
12/05/2019 19:00 5.16 144.9 585.59 0.00 31.8
12/05/2019 18:00 5.16 144.9 585.58 0.00 32.3
12/05/2019 17:00 5.18 148.9 585.56 0.00 32.5
12/05/2019 16:00 5.16 144.9 585.62 0.00 32.8
12/05/2019 15:00 5.15 142.8 585.59 0.00 36.3
12/05/2019 14:00 5.16 144.9 585.57 0.00 39.3
12/05/2019 13:00 5.16 144.9 585.58 0.00 38.0
12/05/2019 12:00 5.16 144.9 585.57 0.01 38.2
12/05/2019 11:00 5.16 144.9 585.59 0.00 37.6
12/05/2019 10:00 5.15 142.8 585.60 0.00 31.6
12/05/2019 09:00 5.16 144.9 585.59 0.00 28.4
12/05/2019 08:00 5.15 142.8 585.58 0.00 26.0
12/05/2019 07:00 5.16 144.9 585.58 0.00 24.7
12/05/2019 06:00 5.17 146.9 585.58 0.00 24.9
12/05/2019 05:00 5.16 144.9 585.60 0.00 25.0
12/05/2019 04:00 5.17 146.9 585.59 0.00 25.1
12/05/2019 03:00 5.16 144.9 585.59 0.00 26.2
12/05/2019 02:00 5.16 144.9 585.59 0.00 26.5
12/05/2019 01:00 5.17 146.9 585.60 0.00 27.9
12/05/2019 00:00 5.17 146.9 585.60 0.00 27.9
12/04/2019 23:00 5.16 144.9 585.60 0.00 28.6
12/04/2019 22:00 5.15 142.8 585.59 0.00 29.0
12/04/2019 21:00 5.16 144.9 585.59 0.00 30.0
12/04/2019 20:00 5.17 146.9 585.60 0.00 30.7
12/04/2019 19:00 5.17 146.9 585.61 0.00 30.8
12/04/2019 18:00 5.17 146.9 585.60 0.00 30.8
12/04/2019 17:00 5.17 146.9 585.60 0.00 32.0
12/04/2019 16:00 5.17 146.9 585.60 0.00 33.7
12/04/2019 15:00 5.17 146.9 585.60 0.00 35.8
12/04/2019 14:00 5.18 148.9 585.61 0.00 36.1
12/04/2019 13:00 5.17 146.9 585.61 0.00 35.2
12/04/2019 12:00 5.18 148.9 585.61 0.00 34.3
12/04/2019 11:00 5.17 146.9 585.61 0.00 31.3
12/04/2019 10:00 5.53 230.4 585.58 0.00 28.4
12/04/2019 09:00 5.54 232.9 585.57 0.00 26.6
12/04/2019 08:00 5.54 232.9 585.57 0.00 25.2
12/04/2019 07:00 5.54 232.9 585.60 0.00 27.9
12/04/2019 06:00 5.54 232.9 585.58 0.00 27.5
12/04/2019 05:00 5.54 232.9 585.58 0.00 27.8
12/04/2019 04:00 5.54 232.9 585.61 0.00 27.1
12/04/2019 03:00 5.55 235.4 585.58 0.00 26.0
12/04/2019 02:00 5.56 237.9 585.63 0.00 24.9
12/04/2019 01:00 5.56 237.9 585.63 0.00 26.3
12/04/2019 00:00 5.55 235.4 585.62 0.00 26.4
12/03/2019 23:00 5.56 237.9 585.60 0.00 27.0
12/03/2019 22:00 5.57 240.4 585.64 0.00 27.7
12/03/2019 21:00 5.57 240.4 585.67 0.00 27.8
12/03/2019 20:00 5.56 237.9 585.62 0.00 28.0
12/03/2019 19:00 5.57 240.4 585.63 0.00 28.8
12/03/2019 18:00 5.57 240.4 585.66 0.00 29.1
12/03/2019 17:00 5.59 245.4 585.65 0.00 29.8
12/03/2019 16:00 5.58 242.9 585.65 0.00 29.4
12/03/2019 15:00 5.59 245.4 585.73 0.00 28.8
12/03/2019 14:00 5.60 248.0 585.70 0.00 27.8
12/03/2019 13:00 5.62 253.3 585.71 0.00 28.0
12/03/2019 12:00 5.60 248.0 585.69 0.00 27.6
12/03/2019 11:00 5.60 248.0 585.68 0.00 27.3
12/03/2019 10:00 5.59 245.4 585.57 0.00 26.8
12/03/2019 09:00 5.84 314.8 585.62 0.00 27.2
12/03/2019 08:00 5.81 305.9 585.62 0.00 27.5
12/03/2019 07:00 5.79 300.1 585.64 0.00 27.4
12/03/2019 06:00 5.77 294.5 585.64 0.00 26.4
12/03/2019 05:00 5.75 288.8 585.66 0.00 26.7
12/03/2019 04:00 5.82 308.9 585.65 0.00 26.1
12/03/2019 03:00 5.81 305.9 585.64 0.00 25.7
12/03/2019 02:00 5.83 311.9 585.64 0.00 26.5
12/03/2019 01:00 5.83 311.9 585.63 0.00 27.1
12/03/2019 00:00 5.81 305.9 585.66 0.00 28.5
12/02/2019 23:00 5.85 317.8 585.69 0.00 31.6
12/02/2019 22:00 5.81 305.9 585.72 0.00 32.6
12/02/2019 21:00 5.81 305.9 585.67 0.00 31.9
12/02/2019 20:00 5.75 288.8 585.67 0.00 31.9
12/02/2019 19:00 5.83 311.9 585.63 0.00 32.8
12/02/2019 18:00 5.81 305.9 585.69 0.00 31.5
12/02/2019 17:00 5.81 305.9 585.68 0.00 30.8
12/02/2019 16:00 5.81 305.9 585.69 0.00 31.8
12/02/2019 15:00 5.81 305.9 585.68 0.00 32.1
12/02/2019 14:00 5.80 303.0 585.74 0.00 32.2
12/02/2019 13:00 5.83 311.9 585.70 0.00 32.0
12/02/2019 12:00 5.80 303.0 585.73 0.00 31.8
12/02/2019 11:00 5.80 303.0 585.72 0.00 31.9
12/02/2019 10:00 5.82 308.9 585.73 0.00 31.2
12/02/2019 09:00 5.86 320.8 585.66 0.00 30.3
12/02/2019 08:00 5.86 320.8 585.75 0.00 29.8
12/02/2019 07:00 5.82 308.9 585.76 0.00 29.1
12/02/2019 06:00 5.81 305.9 585.76 0.00 28.4
12/02/2019 05:00 5.80 303.0 585.75 0.00 27.6
12/02/2019 04:00 5.82 308.9 585.72 0.00 26.5
12/02/2019 03:00 5.84 314.8 585.76 0.00 25.5
12/02/2019 02:00 5.82 308.9 585.78 0.00 24.5
12/02/2019 01:00 5.86 320.8 585.77 0.00 23.8
12/02/2019 00:00 5.76 291.7 585.76 0.00 23.7
12/01/2019 23:00 5.84 314.8 585.76 0.00 24.6
12/01/2019 22:00 5.84 314.8 585.77 0.00 24.9
12/01/2019 21:00 5.83 311.9 585.77 0.00 25.4
12/01/2019 20:00 5.82 308.9 585.77 0.00 25.9
12/01/2019 19:00 5.81 305.9 585.77 0.00 26.4
12/01/2019 18:00 5.80 303.0 585.78 0.00 26.9
12/01/2019 17:00 5.79 300.1 585.78 0.00 27.4
12/01/2019 16:00 5.78 297.3 585.78 0.00 27.9
12/01/2019 15:00 5.80 303.0 585.78 0.00 28.6
12/01/2019 14:00 5.86 320.8 585.79 0.00 28.7
12/01/2019 13:00 5.86 321.4 585.80 0.00 28.3
12/01/2019 12:00 5.86 322.0 585.80 0.00 28.0
12/01/2019 11:00 5.87 322.5 585.81 0.00 27.7
12/01/2019 10:00 5.87 323.1 585.82 0.00 27.3
12/01/2019 09:00 5.87 323.7 585.83 0.00 27.0
12/01/2019 08:00 5.87 324.2 585.83 0.00 26.6
12/01/2019 07:00 5.87 324.8 585.84 0.00 26.3
12/01/2019 06:00 5.88 325.4 585.85 0.00 26.0
12/01/2019 05:00 5.88 325.9 585.85 0.00 25.6
12/01/2019 04:00 5.88 326.5 585.86 0.00 25.3
12/01/2019 03:00 5.88 327.1 585.87 0.00 24.9
12/01/2019 02:00 5.88 327.7 585.88 0.00 24.6
12/01/2019 01:00 5.88 328.2 585.88 0.00 24.3
12/01/2019 00:00 5.89 328.8 585.89 0.00 23.9
11/30/2019 23:00 5.89 329.4 585.90 0.00 23.6
11/30/2019 22:00 5.89 329.9 585.90 0.00 23.2
11/30/2019 21:00 5.89 330.5 585.91 0.00 22.9
11/30/2019 20:00 5.89 331.1 585.92 0.00 22.6
11/30/2019 19:00 5.90 331.7 585.93 0.00 22.2
11/30/2019 18:00 5.90 332.2 585.93 0.00 21.9
11/30/2019 17:00 5.90 332.8 585.94 0.00 21.5
11/30/2019 16:00 5.90 333.4 585.95 0.00 21.2
11/30/2019 15:00 5.90 333.9 585.96 0.00 20.9
11/30/2019 14:00 5.91 334.5 585.96 0.00 20.5
11/30/2019 13:00 5.91 335.1 585.97 0.00 20.2
11/30/2019 12:00 5.91 335.7 585.98 0.00 19.8
11/30/2019 11:00 5.91 336.2 585.98 0.00 19.5
11/30/2019 10:00 5.91 336.8 585.99 0.00 19.2
11/30/2019 09:00 5.91 337.4 586.00 0.00 18.8
11/30/2019 08:00 5.92 338.0 586.01 0.00 18.5
11/30/2019 07:00 5.92 338.5 586.01 0.00 18.1
11/30/2019 06:00 5.92 339.1 586.02 0.00 17.8
11/30/2019 05:00 5.86 320.8 586.02 0.00 18.6
11/30/2019 04:00 5.97 354.6 585.99 0.00 19.3
11/30/2019 03:00 6.02 370.3 586.04 0.00 20.2
11/30/2019 02:00 5.94 345.3 586.05 0.00 21.4
11/30/2019 01:00 5.94 345.3 586.02 0.00 21.5
11/30/2019 00:00 5.94 345.3 586.02 0.00 21.4
11/29/2019 23:00 5.92 339.1 586.02 0.00 22.0
11/29/2019 22:00 5.89 329.9 586.03 0.00 22.4
11/29/2019 21:00 5.96 351.5 586.00 0.00 23.4
11/29/2019 20:00 5.94 345.3 586.02 0.00 24.1
11/29/2019 19:00 6.02 370.3 586.05 0.00 24.9
11/29/2019 18:00 5.96 351.5 586.03 0.00 25.8
11/29/2019 17:00 6.00 364.0 586.06 0.00 27.0
11/29/2019 16:00 5.98 357.7 586.04 0.00 28.7
11/29/2019 15:00 6.03 373.5 586.07 0.00 30.3
11/29/2019 14:00 5.35 186.3 586.14 0.00 30.9
11/29/2019 13:00 5.32 179.5 586.10 0.00 30.6
11/29/2019 12:00 5.35 186.3 586.13 0.00 30.0
11/29/2019 11:00 5.34 184.0 586.13 0.00 30.5
11/29/2019 10:00 5.33 181.8 586.10 0.00 30.9
11/29/2019 09:00 5.35 186.3 586.09 0.00 30.1
11/29/2019 08:00 5.89 329.9 586.07 0.00 28.9
11/29/2019 07:00 5.91 336.0 586.06 0.00 28.3
11/29/2019 06:00 5.95 348.3 586.07 0.00 28.7
11/29/2019 05:00 5.92 339.1 586.05 0.00 29.0
11/29/2019 04:00 5.89 329.9 586.07 0.00 29.6
11/29/2019 03:00 5.95 348.3 586.04 0.00 29.7
11/29/2019 02:00 5.95 348.3 586.06 0.00 29.9
11/29/2019 01:00 5.93 342.2 586.06 0.00 29.9
11/29/2019 00:00 5.92 339.1 586.08 0.00 29.6
11/28/2019 23:00 5.98 357.7 586.04 0.00 30.1
11/28/2019 22:00 5.90 333.0 586.00 0.00 30.2
11/28/2019 21:00 5.92 339.1 586.06 0.00 30.1
11/28/2019 20:00 5.93 342.2 586.07 0.00 30.3
11/28/2019 19:00 5.90 333.0 586.04 0.00 30.3
11/28/2019 18:00 5.92 339.1 586.00 0.00 30.9
11/28/2019 17:00 5.90 333.0 586.03 0.00 32.6
11/28/2019 16:00 5.94 345.3 586.05 0.00 32.8
11/28/2019 15:00 5.92 339.1 586.06 0.00 33.5
11/28/2019 14:00 6.00 364.0 586.13 0.00 34.8
11/28/2019 13:00 5.93 342.2 586.07 0.00 34.8
11/28/2019 12:00 5.90 333.0 586.03 0.00 35.9
11/28/2019 11:00 5.93 342.2 586.03 0.00 36.3
11/28/2019 10:00 5.89 329.9 585.98 0.00 37.1
11/28/2019 09:00 5.86 320.8 585.96 0.00 37.6
11/28/2019 08:00 5.87 323.9 585.96 0.00 38.1
11/28/2019 07:00 5.83 311.9 585.92 0.01 38.0
11/28/2019 06:00 5.81 305.9 585.92 0.01 37.6
11/28/2019 05:00 5.81 305.9 585.91 0.02 38.0
11/28/2019 04:00 5.81 305.9 585.88 0.02 38.8
11/28/2019 03:00 5.84 314.8 585.87 0.05 38.9
11/28/2019 02:00 5.83 311.9 585.85 0.00 37.9
11/28/2019 01:00 5.80 303.0 585.85 0.01 38.2
11/28/2019 00:00 5.80 303.0 585.85 0.00 38.5
11/27/2019 23:00 5.81 305.9 585.85 0.04 38.5
11/27/2019 22:00 5.84 314.8 585.85 0.11 38.6
11/27/2019 21:00 5.83 311.9 585.85 0.02 39.0
11/27/2019 20:00 5.80 303.0 585.80 0.07 39.3
11/27/2019 19:00 5.80 303.0 585.79 0.14 39.4
11/27/2019 18:00 5.85 317.8 585.81 0.01 40.6
11/27/2019 17:00 5.80 303.0 585.79 0.00 41.8
11/27/2019 16:00 5.81 305.9 585.79 0.00 42.4
11/27/2019 15:00 5.78 297.3 585.82 0.00 42.9
11/27/2019 14:00 5.80 303.0 585.83 0.00 42.7
11/27/2019 13:00 5.78 297.3 585.82 0.00 41.7
11/27/2019 12:00 5.81 305.9 585.82 0.00 37.7
11/27/2019 11:00 5.83 311.9 585.83 0.00 35.6
11/27/2019 10:00 5.81 305.9 585.81 0.00 34.1
11/27/2019 09:00 5.78 297.3 585.81 0.00 32.4
11/27/2019 08:00 5.82 308.9 585.81 0.00 31.8
11/27/2019 07:00 5.82 308.9 585.82 0.00 30.7
11/27/2019 06:00 5.80 303.0 585.81 0.00 31.1
11/27/2019 05:00 5.81 305.9 585.82 0.00 31.5
11/27/2019 04:00 5.84 314.8 585.83 0.00 29.9
11/27/2019 03:00 5.79 300.1 585.83 0.00 30.3
11/27/2019 02:00 5.79 300.1 585.84 0.00 30.3
11/27/2019 01:00 5.83 311.9 585.85 0.00 31.9
11/27/2019 00:00 5.84 314.8 585.84 0.00 33.9
11/26/2019 23:00 5.82 308.9 585.84 0.00 34.0
11/26/2019 22:00 5.83 311.9 585.84 0.00 34.0
11/26/2019 21:00 5.81 305.9 585.87 0.00 35.7
11/26/2019 20:00 5.81 305.9 585.85 0.00 37.7
11/26/2019 19:00 5.82 308.9 585.85 0.00 38.2
11/26/2019 18:00 5.85 317.8 585.85 0.00 38.8
11/26/2019 17:00 5.84 314.8 585.86 0.00 42.9
11/26/2019 16:00 5.79 300.1 585.87 0.00 43.8
11/26/2019 15:00 5.82 308.9 585.88 0.00 44.4
11/26/2019 14:00 5.84 314.8 585.87 0.00 43.6
11/26/2019 13:00 5.85 317.8 585.86 0.00 36.9
11/26/2019 12:00 5.84 314.8 585.85 0.00 34.2
11/26/2019 11:00 5.83 311.9 585.87 0.00 32.8
11/26/2019 10:00 5.74 286.1 585.82 0.00 31.8
11/26/2019 09:00 5.49 220.4 585.93 0.00 30.0
11/26/2019 08:00 5.46 212.8 585.91 0.00 29.3
11/26/2019 07:00 5.48 217.9 585.91 0.00 30.1
11/26/2019 06:00 5.47 215.4 585.92 0.00 30.6
11/26/2019 05:00 5.51 225.4 585.91 0.00 30.4
11/26/2019 04:00 5.49 220.4 585.91 0.00 30.3
11/26/2019 03:00 5.49 220.4 585.91 0.00 31.7
11/26/2019 02:00 5.50 223.0 585.90 0.00 29.4
11/26/2019 01:00 5.49 220.4 585.90 0.00 30.3
11/26/2019 00:00 5.49 220.4 585.91 0.00 31.4
11/25/2019 23:00 5.47 215.4 585.90 0.00 32.3
11/25/2019 22:00 5.49 220.4 585.89 0.00 32.3
11/25/2019 21:00 5.47 215.4 585.89 0.00 33.2
11/25/2019 20:00 5.48 217.9 585.89 0.00 32.6
11/25/2019 19:00 5.47 215.4 585.88 0.00 32.3
11/25/2019 18:00 5.48 217.9 585.88 0.00 33.9
11/25/2019 17:00 5.46 212.8 585.88 0.00 37.5
11/25/2019 16:00 5.46 212.8 585.87 0.00 43.4
11/25/2019 15:00 5.45 210.3 585.86 0.00 44.6
11/25/2019 14:00 5.45 210.3 585.86 0.00 44.4
11/25/2019 13:00 5.45 210.3 585.87 0.03 43.2
11/25/2019 12:00 5.46 212.8 585.87 0.03 42.6
11/25/2019 11:00 5.27 168.3 585.86 0.01 41.5